Tracking 31027 objects as of 19-Jul-2025
HD Live streaming from Space Station
objects crossing your sky now

ONEWEB-0570

Track ONEWEB-0570 now!
10-day predictions
ONEWEB-0570 is classified as:


NORAD ID: 55149
Int'l Code: 2023-004K
Perigee: 1,195.9 km
Apogee: 1,197.8 km
Inclination: 87.9 °
Period: 109.2 minutes
Semi major axis: 7567 km
RCS: Unknown
Launch date: January 10, 2023
Source: United Kingdom (UK)
Launch site: AIR FORCE WESTERN TEST RANGE (AFWTR)
Your satellite tracking list
STARLINK-30103
Track 1 satellite(s)




NASA's NSSDC Master Catalog

Two Line Element Set (TLE):
1 55149U 23004K   25199.57444267  .00000024  00000-0  29346-4 0  9992
2 55149  87.9112  41.7804 0001239  75.8313 284.2957 13.18689621125729
Source of the keplerian elements: AFSPC